Location: Gleizolles
(44.4833°N, 6.7667°E)
Time: 04:12:14
(UTC+00:00)

N. Korean satellite - Pass Details

Date: 15 December 2021
Orbit: 447 x 491 km, 97.3° (Epoch: 23 January)

Event Time Altitude Azimuth Distance (km) Brightness Sun altitude
Rises 05:49:03 0° 355° (N) 2,461 9.9 -12.5°
Enters shadow 05:49:28 - 353° (N) 2,305 9.7 -12.5°
Exits shadow 05:56:41 - 244° (WSW) 1,757 9.0 -11.3°
Sets 05:58:39 0° 230° (SW) 2,461 9.9 -10.9°
